K5EBQ Weather Reports


Display with metric or nautical units.
time (UTC)temp
F
wind
direction
speed
MPH
gust
MPH
rain 1hr
in
rain 24hr
in
rain mn
in
humidity
%
barometer
mb
20260831113037 77 194 0.0 0.0 0.00 0.00 0.00 94 1012.6
20260831111539 77 194 0.0 0.0 0.00 0.00 0.00 93 1012.6
20260831110033 78 194 0.0 0.0 0.00 0.00 0.00 93 1012.6
20260831104535 78 194 0.0 0.0 0.00 0.00 0.00 93 1012.6
20260831103031 78 194 0.0 0.0 0.00 0.00 0.00 92 1012.6
20260831101530 78 194 0.0 0.0 0.00 0.00 0.00 92 1012.7
20260831100030 78 194 0.0 0.0 0.00 0.00 0.00 91 1012.7
20260831094534 79 194 0.0 0.0 0.00 0.00 0.00 91 1012.7
20260831093032 79 194 0.0 0.0 0.00 0.00 0.00 91 1012.6
20260831091525 79 194 0.0 0.0 0.00 0.00 0.00 90 1012.5
20260831090024 79 194 0.0 0.0 0.00 0.00 0.00 90 1012.5
20260831084535 79 194 0.0 0.0 0.00 0.00 0.00 90 1012.7
20260831083037 80 194 0.0 0.0 0.00 0.00 0.00 90 1012.6
20260831081523 80 194 0.0 0.0 0.00 0.00 0.00 89 1012.6
20260831080027 80 194 0.0 0.0 0.00 0.00 0.00 89 1012.7
20260831074517 81 194 0.0 0.0 0.00 0.00 0.00 88 1012.7
20260831073020 81 194 0.0 0.0 0.00 0.00 0.00 88 1012.8
20260831071515 81 194 0.0 0.0 0.00 0.00 0.00 87 1012.8
20260831070016 81 194 0.0 0.0 0.00 0.00 0.00 87 1012.9
20260831064512 81 194 0.0 0.0 0.00 0.00 0.00 86 1013.0
20260831063012 82 194 0.0 0.0 0.00 0.00 0.00 86 1013.1
20260831061511 82 194 0.0 0.0 0.00 0.00 0.00 85 1013.1
20260831060008 82 194 0.0 0.0 0.00 0.00 0.00 85 1013.1
20260831054508 82 194 0.0 0.0 0.00 0.00 0.00 85 1013.1
20260831053007 82 194 0.0 0.0 0.00 0.00 0.00 84 1013.1
20260831051508 83 194 0.0 0.0 0.00 0.00 0.00 83 1012.9
20260831050002 83 194 0.0 0.0 0.00 0.00 0.00 82 1012.7
20260831044505 83 194 0.0 0.0 0.00 0.00 0.00 81 1012.8
20260831043001 83 194 0.0 0.0 0.00 0.00 0.00 80 1012.8
20260831041501 84 193 0.0 0.0 0.00 0.00 0.00 79 1012.7
20260831040100 84 194 0.0 0.0 0.00 0.00 0.00 78 1012.6
20260831034559 84 179 0.0 0.0 0.00 0.00 0.00 77 1012.5
20260831033101 85 213 0.0 0.0 0.00 0.00 0.00 76 1012.3
20260831031558 85 213 0.0 0.0 0.00 0.00 0.00 74 1012.3
20260831030106 86 221 0.0 0.0 0.00 0.00 0.00 73 1012.0
20260831024604 86 232 0.0 0.0 0.00 0.00 0.00 72 1011.9
20260831023057 87 194 0.0 0.0 0.00 0.00 0.00 70 1011.6
20260831021602 87 153 0.0 0.0 0.00 0.00 0.00 68 1011.4
20260831020106 88 154 0.0 0.0 0.00 0.00 0.00 67 1011.1
20260831014607 88 217 0.0 0.0 0.00 0.00 0.00 65 1011.0
20260831013057 89 204 0.0 0.0 0.00 0.00 0.00 64 1011.1
20260831011610 90 150 0.0 0.0 0.00 0.00 0.00 62 1010.9
20260831010054 91 77 0.0 0.0 0.00 0.00 0.00 60 1010.8
20260831004554 92 171 0.0 0.0 0.00 0.00 0.00 57 1010.7
20260831003056 93 123 0.0 0.0 0.00 0.00 0.00 52 1010.7
20260831001603 94 162 6.0 25.0 0.00 0.00 0.00 50 1010.5
20260831000052 95 173 11.0 46.0 0.00 0.00 0.00 50 1010.4
20260830234551 96 226 9.0 28.0 0.00 0.00 0.00 49 1010.4
20260830233053 97 107 11.0 54.0 0.00 0.00 0.00 47 1010.3
20260830231553 98 178 9.0 36.0 0.00 0.00 0.00 45 1010.2
20260830230049 98 150 5.0 30.0 0.00 0.00 0.00 44 1010.3
20260830224608 98 171 10.0 30.0 0.00 0.00 0.00 42 1010.3
20260830223051 98 188 0.0 0.0 0.00 0.00 0.00 42 1010.4
20260830221548 98 154 0.0 45.0 0.00 0.00 0.00 42 1010.3
20260830220054 99 146 0.0 48.0 0.00 0.00 0.00 43 1010.4
20260830214554 98 153 14.0 39.0 0.00 0.00 0.00 43 1010.4
20260830213045 99 189 15.0 44.0 0.00 0.00 0.00 41 1010.6
20260830211543 100 111 9.0 30.0 0.00 0.00 0.00 40 1010.9
20260830210039 100 52 8.0 23.0 0.00 0.00 0.00 41 1011.0
20260830204538 100 161 5.0 35.0 0.00 0.00 0.00 41 1011.2
20260830203035 100 205 18.0 46.0 0.00 0.00 0.00 42 1011.4
20260830201531 100 209 14.0 28.0 0.00 0.00 0.00 42 1011.8
20260830200030 98 213 12.0 25.0 0.00 0.00 0.00 45 1011.9
20260830194526 98 225 11.0 29.0 0.00 0.00 0.00 44 1012.2
20260830193024 98 84 10.0 36.0 0.00 0.00 0.00 45 1012.5
20260830191524 99 221 31.0 47.0 0.00 0.00 0.00 46 1012.7
20260830190019 99 150 30.0 59.0 0.00 0.00 0.00 47 1012.9
20260830184516 98 156 0.0 32.0 0.00 0.00 0.00 48 1013.1
20260830183013 98 257 14.0 32.0 0.00 0.00 0.00 50 1013.4
20260830181511 96 223 48.0 72.0 0.00 0.00 0.00 49 1013.7
20260830180010 97 87 26.0 63.0 0.00 0.00 0.00 50 1014.0
20260830174508 96 139 17.0 39.0 0.00 0.00 0.00 52 1014.1
20260830173006 95 317 7.0 32.0 0.00 0.00 0.00 57 1014.4
20260830171507 96 275 7.0 41.0 0.00 0.00 0.00 56 1014.5
20260830170003 96 279 14.0 54.0 0.00 0.00 0.00 57 1014.5
20260830164610 94 275 17.0 64.0 0.00 0.00 0.00 59 1014.6
20260830163100 93 180 5.0 39.0 0.00 0.00 0.00 59 1014.8
20260830161610 93 205 5.0 46.0 0.00 0.00 0.00 61 1014.8
20260830160052 92 263 0.0 36.0 0.00 0.00 0.00 65 1014.7
20260830154551 90 135 0.0 1.0 0.00 0.00 0.00 68 1014.9
20260830153046 87 205 0.0 0.0 0.00 0.00 0.00 75 1014.9
20260830151545 87 205 0.0 0.0 0.00 0.00 0.00 75 1014.7
20260830150044 87 205 0.0 42.0 0.00 0.00 0.00 76 1014.7
20260830144543 88 247 16.0 55.0 0.00 0.00 0.00 77 1014.8
20260830143058 87 219 3.0 46.0 0.00 0.00 0.00 78 1014.8
20260830141541 86 205 0.0 0.0 0.00 0.00 0.00 81 1014.8
20260830140041 85 210 0.0 0.0 0.00 0.00 0.00 83 1014.8
20260830134541 84 210 0.0 0.0 0.00 0.00 0.00 83 1014.7
20260830133030 84 210 0.0 0.0 0.00 0.00 0.00 85 1014.5
20260830131527 81 210 0.0 0.0 0.00 0.00 0.00 90 1014.4
20260830130031 79 210 0.0 0.0 0.00 0.00 0.00 94 1014.4
20260830124524 77 210 0.0 0.0 0.00 0.00 0.00 95 1014.2
20260830123023 77 210 0.0 0.0 0.00 0.00 0.00 94 1014.1
20260830121530 77 210 0.0 0.0 0.00 0.00 0.00 94 1014.0
20260830120020 77 210 0.0 0.0 0.00 0.00 0.00 94 1014.0
20260830114519 77 210 0.0 0.0 0.00 0.00 0.00 94 1013.9